Regional Weather Roundup
Issued by NWS

Home | Current Version | Previous Version | Text Only | Print | Product List | Glossary On
Versions: 1 2 3 4 5 6 7 8 9 10 11 12 13 14 15 16 17 18 19 20 21 22 23 24 25 26 27 28 29 30 31 32 33 34 35 36 37 38 39 40 41 42 43 44 45 46 47 48 49 50
000
ASUS42 KKEY 240310
RWRKEY

FLORIDA REGIONAL WEATHER ROUNDUP FOR THE FLORIDA KEYS
NATIONAL WEATHER SERVICE KEY WEST FLORIDA
1100 PM EDT SAT MAY 23 2015

...SOUTH FLORIDA AND THE KEYS...

CITY           SKY/WX    TMP DP  RH WIND       PRES   REMARKS
FORT MYERS     CLOUDY    77  73  87 E5        30.17R
SW REGIONAL AP CLOUDY    77  72  84 E7        30.17R
NAPLES         PTCLDY    77  71  82 E7        30.16R
MIAMI          PTCLDY    81  70  69 E15       30.17R
WEST KENDALL   PTCLDY    80  72  76 E12       30.17R
HOMESTEAD      PTCLDY    81  72  73 E14       30.16R
MARATHON       CLEAR     83  72  69 E13G23    30.14R
BOCA CHICA NAS PTCLDY    83  71  67 E20G29    30.13R
KEY WEST INTL  PTCLDY    82  74  76 E20G26    30.14R

...INTERNATIONAL WEATHER...

CITY           SKY/WX    TMP DP  RH WIND       PRES   REMARKS
NASSAU BAHAMAS PTCLDY    81  75  83 NE8       30.19R
CANCUN MEXICO  MOCLDY    82  77  83 E6        30.07R HX  91
COZUMEL MEXICO MOCLDY    77  73  88 CALM      30.06S

ADJACENT COASTAL WATERS...

STATION/POSITION TIME  SKY/WX   TEMP    WIND        PRES    WAVE
                                AIR SEA DIR/SP/G            HT/PER
                 (UTC)          (F)     (DEG/KT/KT) (MB)    (FT/S)
PULASKI SHOAL LI 0200            83      90/ 17/ 19 1019.3R
SAND KEY         0250            82      90/ 22/ 25 1020.1R
SOMBRERO KEY     0300            82      90/ 23/ 23 1020.7R
LONG KEY         0200            83 87   80/ 18/ 22 1021.3R
MOLASSES REEF    0300            81 83  100/ 19/ 21 1020.9R
FOWEY ROCKS      NOT AVBL

$$


USA.gov is the U.S. government's official web portal to all federal, state and local government web resources and services.